Regional Weather Roundup
Issued by NWS Pendleton, OR

Home | Current Version | Previous Version | Text Only | Print | Product List | Glossary On
Versions: 1 2 3 4 5 6 7 8 9 10 11 12 13 14 15 16 17 18 19 20 21 22 23 24 25 26 27 28 29 30 31 32 33 34 35 36 37 38 39 40 41 42 43 44 45 46 47 48 49 50
000
ASUS46 KPDT 230010
RWRPDT
PENDLETON REGIONAL WEATHER ROUNDUP
NATIONAL WEATHER SERVICE PENDLETON OREGON
500 PM PDT WED OCT 22 2014

NOTE: FAIR INDICATES FEW OR NO CLOUDS BELOW 12,000 FEET WITH NO
SIGNIFICANT WEATHER AND/OR OBSTRUCTIONS TO VISIBILITY.

# INDICATES UNOFFICIAL STATION AND DATA

WAZ520-230110-
EAST SLOPES OF WASHINGTON CASCADES

CITY            SKY/WX      TMP DP  RH  WIND    PRES   REMARKS
#BUMPING DAM    N/A         45  N/A N/A SE2     N/A
#CLE ELUM HS    N/A         49  47  93  CALM    29.68
#CLE ELUM 2NW   N/A         49  48  96  CALM    N/A
#CLE ELUM LAKE  N/A         N/A N/A N/A SW10    29.66F
#CLIFFDEL 2NW   N/A         47  46  96  N2      N/A
#EASTON DOT     N/A         47  42  83  E5      N/A
#GLENWOOD       N/A         51  50  96  CALM    29.70
#MANASTASH CYN  N/A         47  44  89  CALM    29.68F
#NELSON         N/A         48  47  96  CALM    29.72
#NELSON 3SW     N/A         45  44  96  CALM    29.91
#NILE           N/A         49  48  96  CALM    28.97
#PEOH POINT     N/A         43  43  100 E3      N/A
#RONALD 2NW     N/A         47  46  96  CALM    29.58F
#SNOWDEN        N/A         52  47  83  CALM    N/A
#SOUTH BLEWITT  N/A         49  48  96  CALM    N/A
#TEANAWAY 4NE   N/A         49  49  100 CALM    N/A
#TROUT LAKE HS  N/A         53  52  96  CALM    N/A
#TROUT LAKE 1NE N/A         51  50  96  CALM    29.71
$$

WAZ521-230110-
SIMCOE HIGHLANDS

CITY            SKY/WX      TMP DP  RH  WIND    PRES   REMARKS
#BICKLETON HS   N/A         52  44  74  W3      29.85
#CENTERVILLE 4W N/A         57  50  77  SE1     29.46F
#CENTERVILLE 1SWN/A         56  50  80  CALM    29.66
#GOLDENDALE     N/A         57  53  86  CALM    N/A
#GOLDENDALE 1NE N/A         55  53  93  CALM    N/A
#GOLDENDALE 1S  N/A         55  52  90  CALM    29.71
#GOLDENDALE 5WNWN/A         56  50  80  E3      29.67F
#GOODNOE HILLS  N/A         59  53  80  NW3     29.65F
#LYLE 6NE       N/A         54  52  93  CALM    29.66
$$

WAZ026-230110-
KITTITAS VALLEY

CITY            SKY/WX      TMP DP  RH  WIND    PRES   REMARKS
ELLENSBURG AP   LGT RAIN    54  50  86  E3      29.69F FOG
#ELLENSBURG CWU N/A         52  49  89  CALM    29.66
#ELLENSBURG 3NE N/A         52  50  93  CALM    29.72
#ELLENSBURG     N/A         55  54  96  SW1     N/A
#KITTITAS 3S    N/A         51  49  93  CALM    29.69
#THORP 6N       N/A         49  48  96  E7      29.71
$$

WAZ027-230110-
YAKIMA VALLEY

CITY            SKY/WX      TMP DP  RH  WIND    PRES   REMARKS
YAKIMA AIRPORT  LGT RAIN    58  51  77  NE3     29.68
6HR MIN TEMP:   57; 6HR MAX TEMP:   61; 6HR PCP:  TRACE;

#COWICHE 1N     N/A         53  49  86  CALM    29.84F
#DONALD 2NE     N/A         59  49  69  N3      30.00F
#GRANDVIEW      N/A         60  49  67  CALM    29.70F
#MABTON         N/A         63  51  65  SE2     29.70
#MOXEE 2E       N/A         60  41  49  E7      29.63F
#NACHES 2SW     N/A         53  51  93  CALM    29.74
#TERRACE HTS    N/A         57  52  83  CALM    29.66
#WAPATO 4NE     N/A         59  49  69  N3      30.00F
#W YAKIMA       N/A         55  50  83  CALM    29.68S
#WHITE SWAN 5E  N/A         59  52  78  N2      29.68
#WILEY CITY 3W  N/A         54  40  59  CALM    29.96
$$

WAZ028-230110-
LOWER COLUMBIA BASIN...WASHINGTON

CITY            SKY/WX      TMP DP  RH  WIND    PRES   REMARKS
PASCO           LGT RAIN    67  52  59  S8      29.72
6HR MIN TEMP:   65; 6HR MAX TEMP:   71; 6HR PCP:  TRACE;

PROSSER AWOS    N/A         61  52  72  NE6     29.74
#BASIN CITY 5SW N/A         57  54  90  CALM    29.73
#BENTON CITY    N/A         59  52  78  CALM    29.64
#CONNELL 5N     N/A         57  53  86  E2      29.74
#CONNELL 5NW    N/A         58  53  83  E1      29.70
#ELTOPIA        N/A         61  55  81  CALM    29.69S
#ELTOPIA 6NW    N/A         61  54  78  SE2     28.71
#KENNEWICK 3S   N/A         67  51  56  CALM    29.72
#PATERSON       N/A         65  53  65  NE2     29.69
#PROSSER DOT    N/A         59  53  80  NE2     N/A
#PROSSER        N/A         63  48  58  SW1     29.71
#SAGEMOOR 2W    N/A         62  52  70  CALM    29.58
#TOUCHET 2S     N/A         68  45  44  S7      29.72
#WEST PASCO     N/A         67  52  59  CALM    29.70
$$

WAZ029-230110-
FOOTHILLS OF THE BLUES...WASHINGTON

CITY            SKY/WX      TMP DP  RH  WIND    PRES   REMARKS
WALLA WALLA AP  MOCLDY      70  36  29  S20     29.76
6HR MIN TEMP:   68; 6HR MAX TEMP:   74; 6HR PCP:  TRACE;

#LOWDEN 2SE     N/A         70  43  38  S7      29.70
#PLEASANT VIEW 1N/A         67  39  36  S10     29.78
#PRESCOTT       N/A         71  41  34  S2      29.74
#SUDBURY        N/A         69  N/A N/A SE2     N/A
#WHITMAN COLLEGEN/A         70  41  35  E3      29.78
#WAITSBURG 8N   N/A         66  28  24  S7      29.71S
#WALLA WALLA 5E N/A         70  40  34  CALM    N/A
#WALLA WALLA U  N/A         71  40  32  CALM    29.72
#WHITMAN MISSIONN/A         69  43  39  CALM    29.74
$$

WAZ030-230110-
BLUE MOUNTAINS...WASHINGTON

CITY            SKY/WX      TMP DP  RH  WIND    PRES   REMARKS
$$

ORZ009-041-WAZ024-230110-
COLUMBIA RIVER GORGE

CITY            SKY/WX      TMP DP  RH  WIND    PRES   REMARKS
HOOD RIVER AP   LGT RAIN    55  54  96  CALM    29.70
THE DALLES AP   CLOUDY      57  53  86  N5      29.68
6HR MIN TEMP:   55; 6HR MAX TEMP:   58; 6HR PCP:  0.01;

#ARLINGTON AIRPON/A         57  51  80  E3      29.98S
#ARLINGTON HS   N/A         58  54  87  W2      29.61
#CELILO DOT     N/A         58  53  83  CALM    N/A
#LYLE           N/A         56  54  93  CALM    29.70
#MARYHILL       N/A         58  53  83  SE8     N/A
#MARYHILL 2W    N/A         58  56  93  CALM    N/A
#MOSIER 1S      N/A         54  52  93  CALM    N/A
#MURDOCK        N/A         57  55  93  W3      29.71
#RUFUS DOT      N/A         57  54  90  CALM    N/A

$$

ORZ510-230110-
NORTH CENTRAL OREGON

CITY            SKY/WX      TMP DP  RH  WIND    PRES   REMARKS
#CHENOWITH 1W   N/A         56  51  83  S7      N/A
#COW CYN RST AREN/A         61  41  48  S9      N/A
#DUFUR 9E       N/A         58  47  67  S14     29.73
#GRASS VALLEY   N/A         57  48  72  S6      N/A
#GRASS VALLEY 1SN/A         59  47  64  SW10    29.71
#KENT DOT       N/A         62  35  36  S16     N/A
#MAUPIN SCHOOL  N/A         69  47  45  SW5     28.59
#MORO SCHOOL    N/A         61  54  78  SW2     29.74
#SHANIKO 5WSW   N/A         59  33  37  S23     N/A
#SHANIKO 4NW    N/A         58  39  49  S13G31  29.76
#TYGH VALLEY 2NEN/A         63  51  65  W3      29.69
#WAPANITIA AIRPON/A         59  51  75  CALM    29.71
#WASCO DOT      N/A         64  44  48  SW10    N/A
#WASCO 5NE      N/A         56  51  83  CALM    29.71
$$

ORZ511-230110-
CENTRAL OREGON

CITY            SKY/WX      TMP DP  RH  WIND    PRES   REMARKS
BEND AIRPORT    MOCLDY      59  39  47  S17     29.83
MADRAS AIRPORT  CLOUDY      64  41  43  S22G33  29.77
PRINEVILLE AP   CLOUDY      61  39  44  S17G24  29.81
#BEND 6E        N/A         59  38  45  CALM    29.71S
#BEND 1SW       N/A         56  42  59  SW2     N/A
#BEND-KIM LN    N/A         58  42  55  S6      29.79
#CROOKED RVR RANN/A         62  44  52  W14G26  29.73R
#CULVER         N/A         63  42  46  E10G26  29.73
#LAKE BILLY CHINN/A         60  28  29  S3      29.84R
#POWELL BUTTE 3EN/A         62  38  41  S8      N/A
#POWELL BUTTE   N/A         61  40  46  SW10    29.47S
#PRINEVILLE 3N  N/A         60  43  53  E1      29.73S
#WARM SPRINGS   N/A         67  47  49  E7      29.72


ORZ509-230110-
EAST SLOPES OF OREGON CASCADES

CITY            SKY/WX      TMP DP  RH  WIND    PRES   REMARKS
#BLUE BOX PASS  N/A         48  -3  11  CALM    N/A
#CAMP SHERMAN   N/A         57  49  75  CALM    29.74
#LA PINE DOT    N/A         54  35  48  SE7     N/A
#LA PINE 4NW    N/A         53  40  61  S5      29.86
#LAVA BUTTE DOT N/A         52  36  54  S6G24   N/A
#SISTERS AIRPOR N/A         60  49  67  N12G26  29.91
#SISTERS ODOT   N/A         60  N/A N/A E7      N/A
#SISTERS 3N     N/A         57  45  64  CALM    29.83S
#SUNRIVER       N/A         54  42  64  S5      29.69R
#SUNRIVER AP    N/A         53  41  64  S13G24  29.78
#TUMALO 3W      N/A         57  42  57  SE7     29.66
#WANOGA BUTTE D N/A         42  40  93  W17G28  N/A    WCI 34

$$

ORZ044-230110-
LOWER COLUMBIA BASIN...OREGON

CITY            SKY/WX      TMP DP  RH  WIND    PRES   REMARKS
HERMISTON       LGT RAIN    64  55  73  E5      29.71
6HR MIN TEMP:   63; 6HR MAX TEMP:   71; 6HR PCP:  0.01;

#BOARDMAN SCHOOLN/A         65  51  60  CALM    29.70
#BOARDMAN 3W    N/A         61  56  84  E1      29.38S
#BOARDMAN 8SW   N/A         61  56  84  N2      29.69
#ECHO 8SW       N/A         66  50  56  CALM    29.69
#IONE SCHOOL    N/A         71  43  36  S10     29.71
#IRRIGON 4NW    N/A         66  52  61  NE3     N/A
#UMATILLA SCHOOLN/A         64  59  84  CALM    29.78
#UMATILLA       N/A         67  54  63  CALM    29.69
$$

ORZ507-230110-
NORTHERN FOOTHILLS OF THE BLUES

CITY            SKY/WX      TMP DP  RH  WIND    PRES   REMARKS
PENDLETON AIRPT CLOUDY      67  41  39  S14     29.74
6HR MIN TEMP:   59; 6HR MAX TEMP:   67; 6HR PCP:  0.08;

#ADAMS 3WNW     N/A         63  42  46  SE1     29.75
#ATHENA         N/A         65  37  35  SW2     29.76
#CAYUSE         N/A         65  39  38  SE31G41 29.71
#HELIX SCHOOL   N/A         62  42  48  S15     29.76
#HELIX 3N       N/A         61  42  50  S15     29.76
#HOLDMAN 5SE    N/A         63  52  67  CALM    29.77
#HOLDMAN 6E     N/A         61  45  56  NW1     29.57
#M-F FERNDALE   N/A         68  39  35  SE2     29.75
#M-F GROVE ELEM N/A         68  33  27  E5      29.74
#M-FREEWATER 5SEN/A         68  40  36  SE15G28 29.77
#PENDLETON DNTN N/A         68  41  37  S6      28.55
#PDT AQUATIC CTRN/A         70  46  42  S5      29.73
#PDT SUNRIDGE   N/A         70  43  38  SW6     29.76
#PENDLETON 7NW  N/A         66  48  52  S3      27.22
#PILOT ROCK     N/A         69  35  28  SE13G26 29.78
#TUTUILLA       N/A         65  46  50  S1      29.75
#UMAPINE 2E     N/A         68  44  42  SE7     29.72
#WESTON SCHOOL  N/A         65  30  27  SW14G26 29.74

$$

ORZ508-230110-
SOUTHERN FOOTHILLS OF THE BLUES

CITY            SKY/WX      TMP DP  RH  WIND    PRES   REMARKS
LEXINGTON       CLOUDY      70  39  32  S20G30  29.72F
#AJAX           N/A         64  37  37  S13G24  29.68
#CONDON SCHOOL  N/A         62  43  50  CALM    29.73
#CONDON 5W      N/A         58  40  51  S16G24  29.73
#FOSSIL SCHOOL  N/A         63  42  46  S8      29.76
#HEPPNER EOC    N/A         66  40  38  SE7     29.67
#HEPPNER 4NE    N/A         63  41  44  S5      29.72
#LEXINGTON 2SE  N/A         70  42  36  S14G26  29.70
#MIKKALO        N/A         65  44  46  SE6     29.72
#OLEX 4N        N/A         66  48  52  S8      29.70
#RUGGS 5NE      N/A         62  39  43  SE9G26  29.94
#RUGGS 2SW      N/A         63  40  43  S15G24  29.74

$$

ORZ502-503-230110-
BLUE MOUNTAINS

CITY            SKY/WX      TMP DP  RH  WIND    PRES   REMARKS
#BATTLE MTN DOT N/A         57  40  53  S12     N/A
#HARDMAN 10S    N/A         53  40  61  S6      29.91
#HEPPNER 15SE   N/A         56  39  53  E5      29.72
#LADD CYN SMT   N/A         53  28  38  SE25    N/A
#LADD CREEK ODOTN/A         55  34  45  S10     N/A
#N POWDER DOT   N/A         54  34  47  SE30G38 N/A
#PIKES PEAK     N/A         58  35  42  S28G38  27.99
#TROY SCHOOL    N/A         68  40  36  S1      29.66
#UKIAH          N/A         61  39  44  SE9     29.86
#WESTON 4E      N/A         58  37  45  SE15G26 29.73
$$

ORZ505-230110-
JOHN DAY BASIN

CITY            SKY/WX      TMP DP  RH  WIND    PRES   REMARKS
JOHN DAY        MOCLDY      61  35  38  S22G38  29.88
#JOHN DAY KJDY  N/A         61  36  39  SE6     30.01
#DAYVILLE SCHOOLN/A         65  36  34  SE5     29.82
#MT. VERNON 5SE N/A         57  36  45  E8      29.86
#WINLOCK        N/A         58  43  57  N9      29.90S
$$

ORZ506-230110-
OCHOCO AND JOHN DAY HIGHLANDS

CITY            SKY/WX      TMP DP  RH  WIND    PRES   REMARKS
#BUCK CREEK DOT N/A         59  42  53  S14     N/A
#HORSE RIDGE DO N/A         57  37  47  S22     N/A
#KEYES SMT DOT  N/A         55  -49  1  SE12    N/A
#PAULINA SCHOOL N/A         59  37  44  SW10    29.88
#PINE MTN OBS   N/A         45  37  73  SE29G45 N/A    WCI 35
#PRAIRIE CITY   N/A         58  33  39  CALM    29.86
#SENECA         N/A         55  N/A N/A SE8     N/A
#SENECA 9NW     N/A         54  37  52  CALM    29.96
$$

ORZ049-230110-
GRANDE RONDE VALLEY

CITY            SKY/WX      TMP DP  RH  WIND    PRES   REMARKS
LA GRANDE       CLOUDY      57  28  33  SE26G33 29.89
#COVE           N/A         59  36  42  SE5     29.80
#COVE SCHOOL    N/A         59  34  39  E15     29.86
#COVE 6NW       N/A         57  34  42  S8      29.92
#ELGIN 3N       N/A         59  30  33  SW13    29.62S
#ELGIN 1E       N/A         61  35  38  S8      N/A
#IMBLER SCHOOL  N/A         63  35  35  SW3     29.84S
#ISLAND CITY 4N N/A         55  54  96  CALM    29.70
#LADD CYN DOT   N/A         57  34  42  S18G25  N/A
#UNION 1S       N/A         59  33  37  S5      29.80
$$

ORZ050-230110-
WALLOWA COUNTY

CITY            SKY/WX      TMP DP  RH  WIND    PRES   REMARKS
#ENTERPRISE HS  N/A         55  36  49  SE8     29.89
#IMNAHA SCHOOL  N/A         63  32  31  S9      29.79
#IMNAHA 10S     N/A         59  33  37  W15G29  29.92
#JOSEPH 3N      N/A         53  37  54  SE10    29.91
#JOSEPH 3W      N/A         51  34  52  NE5     29.76S
#LOSTINE        N/A         57  35  43  SE8     29.68
#MT HOWARD 8000 N/A         37  29  72  SW18G47 29.95  WCI 27
#PROMISE 1S     N/A         59  37  44  E6      29.95
#SHEEP RDG 7000 N/A         43  32  65  CALM    29.93
#WALLOWA SCHOOL N/A         62  36  38  CALM    30.83



$$



USA.gov is the U.S. government's official web portal to all federal, state and local government web resources and services.